Total_Precipitation_Accumulation
1.22 1.35 1.27 1.07 1.03 1.01 1.20 1.47 1.62 1.47 1.33 1.23 1.23 1.25 1.24 1.28 1.43 1.31 1.37 1.38 1.26 1.14 1.05 0.98 0.96 0.94 0.95 1.04 1.12 1.16 1.20 1.29 1.46 1.66 1.87 2.13 2.40 2.68
1.41 1.40 1.31 1.18 1.22 1.08 1.13 1.36 1.57 1.69 1.58 1.19 1.24 1.25 1.32 1.21 1.40 1.30 1.34 1.39 1.24 1.14 1.04 0.99 0.96 0.94 0.93 0.96 1.02 1.11 1.15 1.15 1.20 1.29 1.39 1.50 1.60 1.77
1.61 1.50 1.45 1.44 1.43 1.30 1.32 1.39 1.47 1.66 1.67 1.38 1.30 1.43 1.52 1.44 1.46 1.42 1.33 1.35 1.27 1.21 1.06 0.99 0.95 0.92 0.94 0.94 0.95 0.96 1.01 1.03 1.06 1.10 1.17 1.22 1.22 1.23
1.99 2.03 1.82 1.72 1.68 1.53 1.50 1.45 1.47 1.59 1.67 1.61 1.51 1.56 1.58 1.55 1.53 1.35 1.14 1.08 1.14 1.26 1.19 1.07 1.01 0.94 0.91 0.91 0.92 0.91 0.92 0.94 0.99 1.00 1.03 1.07 1.10 1.10
1.85 2.03 2.03 2.06 1.86 1.79 1.70 1.61 1.56 1.51 1.63 1.63 1.55 1.69 1.71 1.71 1.58 1.28 1.18 1.22 1.09 1.25 1.25 1.06 0.96 0.92 0.88 0.84 0.83 0.84 0.84 0.86 0.89 0.92 0.92 0.90 0.90 0.91
1.64 1.70 1.81 2.04 2.00 1.96 1.84 1.81 1.79 1.78 1.82 1.78 1.73 1.81 1.98 2.04 1.83 1.50 1.36 1.32 1.21 1.06 1.13 1.02 0.96 0.93 0.88 0.83 0.79 0.76 0.77 0.79 0.82 0.82 0.85 0.84 0.82 0.79
1.67 1.60 1.58 1.77 1.85 1.86 1.69 1.74 1.87 1.93 1.96 1.93 1.90 1.95 2.03 2.14 1.88 1.61 1.43 1.38 1.34 1.18 1.08 0.95 0.93 0.90 0.93 0.96 0.91 0.82 0.76 0.77 0.79 0.81 0.81 0.80 0.81 0.81
1.91 1.82 1.70 1.61 1.60 1.65 1.70 1.74 1.79 1.80 1.85 1.89 1.85 1.89 1.96 2.02 2.09 1.90 1.66 1.47 1.36 1.23 1.20 1.08 1.00 0.97 0.89 0.82 0.91 0.87 0.80 0.76 0.74 0.76 0.78 0.80 0.79 0.75
1.87 1.85 1.65 1.51 1.58 1.54 1.69 1.72 1.64 1.59 1.55 1.60 1.65 1.72 2.05 2.25 2.42 2.16 1.90 1.72 1.51 1.36 1.28 1.14 1.05 0.97 0.86 0.82 0.92 0.80 0.74 0.70 0.67 0.67 0.69 0.71 0.74 0.76
1.50 1.61 1.58 1.49 1.49 1.53 1.47 1.33 1.26 1.28 1.27 1.19 1.25 1.46 1.76 2.19 2.42 2.42 2.33 2.10 1.85 1.52 1.30 1.12 0.94 0.88 0.84 0.79 0.87 0.82 0.75 0.71 0.67 0.64 0.60 0.59 0.62 0.67
1.31 1.31 1.32 1.24 1.31 1.32 1.22 1.10 1.03 1.03 1.05 1.06 1.06 1.21 1.44 1.73 2.07 2.22 2.15 1.95 1.67 1.34 1.13 1.00 0.89 0.87 0.82 0.76 0.77 0.87 0.80 0.75 0.73 0.72 0.71 0.68 0.67 0.73
1.32 1.35 1.44 1.27 1.16 1.03 0.97 0.98 0.89 0.86 0.90 0.88 0.88 0.94 1.05 1.27 1.65 1.76 1.75 1.75 1.56 1.32 1.04 0.97 0.88 0.96 0.91 0.79 0.72 0.73 0.74 0.81 0.82 0.81 0.80 0.81 0.85 0.78
1.08 1.08 1.19 1.20 1.01 0.86 0.84 0.83 0.78 0.75 0.77 0.75 0.74 0.78 0.89 1.03 1.20 1.46 1.55 1.48 1.39 1.17 0.97 0.99 0.92 0.91 0.90 0.78 0.70 0.67 0.64 0.64 0.70 0.78 0.86 0.89 0.90 0.84
1.08 1.10 1.20 1.24 1.02 0.87 0.74 0.68 0.65 0.59 0.62 0.70 0.70 0.69 0.76 0.88 1.07 1.29 1.49 1.49 1.37 1.26 1.18 1.16 1.09 1.02 0.94 0.81 0.69 0.63 0.64 0.64 0.68 0.72 0.76 0.93 0.92 0.92
1.15 1.39 1.39 1.33 1.14 0.92 0.84 0.82 0.70 0.59 0.63 0.68 0.70 0.67 0.70 0.82 1.06 1.31 1.50 1.62 1.54 1.37 1.26 1.18 1.14 1.11 1.11 0.94 0.78 0.71 0.72 0.72 0.69 0.70 0.73 0.77 0.80 0.85
1.19 1.38 1.47 1.48 1.36 1.19 1.10 1.01 0.81 0.74 0.79 0.80 0.82 0.85 0.89 0.98 1.13 1.23 1.38 1.52 1.56 1.41 1.26 1.20 1.17 1.22 1.20 1.07 0.94 0.84 0.76 0.75 0.72 0.74 0.78 0.79 0.79 0.79
1.17 1.40 1.55 1.64 1.63 1.56 1.42 1.31 1.16 1.02 0.92 0.91 0.97 0.97 0.98 1.04 1.09 1.22 1.37 1.41 1.37 1.21 1.13 1.13 1.17 1.21 1.21 1.15 0.98 0.77 0.70 0.66 0.65 0.76 0.88 0.89 0.84 0.82
1.07 1.25 1.49 1.66 1.72 1.80 1.77 1.66 1.47 1.29 1.18 1.14 1.11 1.08 1.08 1.06 1.08 1.20 1.36 1.42 1.33 1.19 1.10 1.05 1.15 1.26 1.25 1.10 0.92 0.75 0.66 0.64 0.65 0.74 0.84 0.87 0.76 0.68
0.94 1.06 1.18 1.34 1.51 1.70 1.77 1.75 1.59 1.46 1.47 1.42 1.30 1.24 1.25 1.24 1.21 1.27 1.39 1.46 1.44 1.32 1.23 1.17 1.19 1.22 1.15 0.92 0.70 0.65 0.67 0.64 0.67 0.69 0.71 0.75 0.70 0.63
0.82 0.91 1.00 1.13 1.31 1.56 1.71 1.77 1.72 1.62 1.60 1.61 1.55 1.46 1.43 1.37 1.29 1.24 1.32 1.40 1.44 1.41 1.34 1.24 1.10 1.06 1.05 0.98 0.87 0.72 0.68 0.77 0.81 0.79 0.75 0.77 0.77 0.79
0.85 0.88 0.93 1.05 1.21 1.42 1.64 1.79 1.80 1.71 1.63 1.67 1.65 1.55 1.49 1.43 1.30 1.21 1.26 1.40 1.46 1.44 1.30 1.14 1.04 1.13 1.29 1.42 1.23 0.89 0.76 0.77 0.90 0.93 0.95 1.01 0.94 0.89
0.95 0.95 1.01 1.12 1.26 1.47 1.65 1.73 1.75 1.72 1.67 1.68 1.66 1.57 1.50 1.46 1.33 1.27 1.27 1.32 1.35 1.35 1.32 1.31 1.42 1.49 1.48 1.43 1.18 0.94 0.87 0.88 0.95 1.02 1.01 0.98 0.94 0.86
1.01 0.99 1.02 1.11 1.28 1.47 1.59 1.69 1.71 1.71 1.70 1.66 1.63 1.56 1.50 1.48 1.44 1.40 1.34 1.34 1.38 1.42 1.54 1.58 1.57 1.55 1.44 1.35 1.28 1.17 1.09 1.09 1.12 1.10 0.96 0.85 0.79 0.77